Regional Weather Roundup
Issued by NWS Newport/Morehead, NC

Home | Current Version | Previous Version | Text Only | Print | Product List | Glossary On
Versions: 1 2 3 4 5 6 7 8 9 10 11 12 13 14 15 16 17 18 19 20 21 22 23 24 25 26 27 28 29 30 31 32 33 34 35 36 37 38 39 40 41 42 43 44 45 46 47 48 49 50
000
ASUS42 KMHX 292210
RWRMHX
WEATHER ROUNDUP FOR EASTERN NORTH CAROLINA
NATIONAL WEATHER SERVICE NEWPORT/MOREHEAD CITY NC
600 PM EDT FRI AUG 29 2014

NOTE: "FAIR" INDICATES FEW OR NO CLOUDS BELOW 12,000 FEET
WITH NO SIGNIFICANT WEATHER AND/OR OBSTRUCTIONS TO VISIBILITY

NCZ015>017-031-032-045>047-102-103-292300-
NORTH COAST

CITY           SKY/WX    TMP DP  RH WIND       PRES   REMARKS
EDENTON        SUNNY     78  67  67 E9        30.14S
ELIZABETH CITY PTSUNNY   77  64  64 NE10      30.15R
KITTY HAWK     CLOUDY    77  65  68 E8        30.14R
MANTEO         CLOUDY    76  65  68 E8        30.15R

$$

NCZ045>047-081-094-103-104-292300-
CENTRAL COAST

CITY           SKY/WX    TMP DP  RH WIND       PRES   REMARKS
FRISCO         CLOUDY    80  75  84 E13       30.12R
SWANQUARTER      N/A     81 N/A N/A E9        30.09S

$$

NCZ095-097-098-100-101-292300-
SOUTHERN COAST

CITY           SKY/WX    TMP DP  RH WIND       PRES   REMARKS
BEAUFORT       PTSUNNY   84  66  54 S3        30.11R
CEDAR ISLAND     N/A     81 N/A N/A NE16      30.18R
JACKSONVILLE   PTSUNNY   84  69  60 S7        30.09R
NEWPORT        NOT AVBL
PINEY ISLAND   PTCLDY    80  75  84 E13       30.12R
WILMINGTON     SUNNY     86  69  56 SE6       30.09R


$$

NCZ011>013-027>030-043-044-078>080-089-090>093-098-292300-
COASTAL PLAIN

CITY           SKY/WX    TMP DP  RH WIND       PRES   REMARKS
AHOSKIE        MOSUNNY   79  69  71 CALM      30.13S
CLINTON        MOSUNNY   88  75  66 E3        30.08S
ELIZABETHTOWN  MOSUNNY   91  66  43 S6        30.07S
GOLDSBORO      MOSUNNY   84  78  82 NE12      30.08S
GREENVILLE     MOSUNNY   81  72  74 E10       30.13S
HAVELOCK       PTSUNNY   82  73  74 E13       30.12R
KENANSVILLE    MOSUNNY   84  73  67 E3        30.10R
KINSTON        SUNNY     82  75  78 NE8       30.12
NEW BERN       SUNNY     84  73  69 E8        30.12R
RICHLANDS      PTSUNNY   88  72  58 NE12      30.09R
ROANOKE RAPIDS NOT AVBL
ROCKY MOUNT    CLOUDY    80  72  76 NE6       30.13R
WASHINGTON     SUNNY     79  69  72 E7        30.13R
WHITEVILLE     SUNNY     89  69  50 SE5       30.07R

$$

AMZ130-135-150-152-154-156-158-170-250-252-270-ANZ085-086-088-633-658-670-292300-
MARINE OBSERVATIONS

STATION/POSITION TIME  TEMP    WIND        PRES    WAVE   SWELL
                       AIR SEA DIR/SP/G            HT/PER HT/PER
                 (UTC) (F)     (DEG/KT/KT) (MB)    (FT/S) (FT/S)
CHESAPEAKE LIGHT 2100   73      80/ 12/ 13 1021.5
BUOY 44014       2200   76 76   60/  8/ 10 1020.9    3/ 9   3/ 9
DUCK             2200   76 78   60/ 13/ 13 1020.2
2E DUCK          2200                        N/A     3/ 8
OREGON INLET     2200   76 79   50/  9/ 13 1020.5
BUOY 44095       2200      77                N/A     4/ 8   2/14
20E OREGON INLET NOT AVBL
HATTERAS CG      2200   80 81   90/ 10/ 14 1020.3
DIAMOND BUOY     2200   80     310/  2/  2 1019.8    3/ 8   3/ 8
CAPE LOOKOUT     2100   81     170/  5/  6 1019.1
BEAUFORT LAB     2200   84 81  190/  4/  5 1019.1
30 SE NEW RIVER  2100   82 84  180/  6/  6 1019.6
5 SE WRIGHTSVILL 2200   79 83  160/ 10/ 12   N/A
BUOY 41002       2143   81 84   80/  8/ 10 1020.3    4/ 9   3/ 9
BUOY 41004       2200   83 84   70/ 10/ 12 1017.9    3/ 9   3/ 9

$$


USA.gov is the U.S. government's official web portal to all federal, state and local government web resources and services.